WESTFORD NEEDLES, 2431

Orbit data source: Space-Track

WESTFORD NEEDLES, 2431 is space debris in LEO originally from a launch on Thu, 09 May 1963 UTC launched from the Air Force Western Test Range (AFWTR). Debris objects in space refer to the collection of defunct objects orbiting the Earth. Examples of debris include non-operational satellites, rocket bodies, and fragments generated from explosions, collisions, or faulty payload assembly.

Loading next visibility...
Identifier
2431, 1963-014AC
Orbit
LEO
Country
Flag of USUS
Related business
Manufacturer
Unknown
Mission
Spacecraft
Bus & Motor
Unknown
Mass
Unknown
Launch date (UTC)
1963-05-09 (63 years ago)
Launch vehicle
Unknown
Launch site
Air Force Western Test Range (AFWTR)
Object type
Payload
Rocket body
Debris
Shape & HBR
Unknown shape, 0.3 m
Radar Cross Section
Medium (>0.1 m² and <1 m²)

Expand to show TLE details & history
Last TLE update: 11 hours ago

TLE from 11 hours ago
0 WESTFORD NEEDLES
1 02431U 63014AC  25352.55204150 -.00000142  00000-0 -62306-1 0  9990
2 02431  87.5256 208.5208 0352322 126.1281 237.2724  8.68514725354025
Epoch: 2025-12-18T13:14Z
TLE epoch observation values (Epoch: 2025-12-18T13:14:56.385Z)
Latitude
0.00001°
Longitude
-77.62005°
Altitude
3,820.373 km
Speed
6.19 km/s
True Right ascension
13h 54m 04s
True Declination
0° 00' 00"
Sunlit
Object was in daylight at epoch
Visualization orbit readout
Latitude
Unknown
Longitude
Unknown
Altitude
Unknown
Speed
Unknown
Apparent Right ascension
Unknown
Apparent Declination
Unknown
Sunlit
N/A
Visualization observer readout
Local Sidereal Time
22:48:09
Azimuth
Unknown
Elevation
Unknown
Doppler factor
Unknown
Orbital elements
Apogee altitude
3,969.149 km
Perigee altitude
3,264.847 km
Semi-major axis
9,995.135 km
Eccentricity
0.03523
Inclination
87.5256°
RAAN
208.5208°
Arg. of periapsis
126.1281°
True anomaly
233.95691°
Mean anomaly
237.2724°
Eccentric anomaly
235.60665°
Mean motion
2.172 °/min
Orbital period
165.75 mins
BSTAR
-0.062306
Loading maneuver chart data...
Computing Atmospheric mass density...

Documentation

Showing up to 5 results
|